SBIRS GEO-3 (USA 282)

Last updated on Tue Jul 01 2025 00:02:47 GMT+0000 (Coordinated Universal Time)

1 43162U 18009A 25181.53625618 .00000127 00000+0 00000+0 0 9995 2 43162 2.0908 353.7358 0001714 100.0019 218.7521 1.00272505 27316
UTC large
Height (km)
Speed (km/s)
/
Latitude / Longitude
Inclination (degrees)
Orbital Period (minutes)
Azimuth
Elevation
Range (km)
Doppler Factor

Next 0 passes for location: London (51.5072 / 0.1276)

Sorry there are no passes over London.